Weather History for Kirksville, MO

Change the Weather History Date:

Monday, July 8, 2013

  Actual Average Record
Temperature  
Mean Temperature 82 °F 75 °F  
Max Temperature 90 °F 85 °F 101 °F (1936)
Min Temperature 74 °F 64 °F 54 °F (1958)
Degree Days  
Heating Degree Days 0 0  
Month to date heating degree days 0 0  
Since 1 June heating degree days 36 16  
Since 1 July heating degree days 0 0  
Cooling Degree Days 17 10  
Month to date cooling degree days 62 74  
Year to date cooling degree days 337 328  
Since 1 June cooling degree days 269 266  
Growing Degree Days 30 (Base 50)    
Moisture  
Dew Point 69 °F    
Average Humidity 67    
Maximum Humidity 79    
Minimum Humidity 55    
Precipitation  
Precipitation T in 0.15 in 1.64 in (1993)
Month to date precipitation T 1.05  
Year to date precipitation 27.91 19.98  
Sea Level Pressure  
Sea Level Pressure 30.01 in    
Wind  
Wind Speed 8 mph (SSW)    
Max Wind Speed 16 mph    
Max Gust Speed 21 mph    
Visibility 10 miles    
Events Thunderstorm    
T = Trace of Precipitation, MM = Missing Value Source: NWS Daily Summary

Daily Weather History Graph

Daily Weather History Graph

Search for Another Location

Airport:

Trip Planner

Search our weather history database for the weather conditions in past years. The results will help you decide how hot, cold, wet, or windy it might be!

Date:

Astronomy

Jul. 08, 2013 Rise Set
Actual Time 5:48 AM CDT 8:41 PM CDT
Civil Twilight 5:16 AM CDT 9:13 PM CDT
Nautical Twilight 4:35 AM CDT 9:54 PM CDT
Astronomical Twilight 3:48 AM CDT 10:41 PM CDT
Moon 6:18 AM CDT (7/8) 8:44 PM CDT (7/8)
Length of Visible Light 15h 57m
Length of Day
14h 52m
New Moon, 0% of the Moon is Illuminated
Jul 8
New Moon
Jul 15
First Quarter
Jul 22
Full
Jul 29
Last Quarter
Aug 6
New

Hourly Weather History & Observations

Time (CDT) Temp. Heat Index Dew Point Humidity Pressure Visibility Wind Dir Wind Speed Gust Speed Precip Events Conditions
12:55 AM 75.9 °F - 66.0 °F 71% 30.00 in 10.0 mi South 8.1 mph - N/A   Mostly Cloudy
1:55 AM 75.9 °F - 66.0 °F 71% 29.99 in 10.0 mi SSW 8.1 mph - N/A   Clear
2:55 AM 75.0 °F - 66.0 °F 73% 29.98 in 10.0 mi SSW 9.2 mph - N/A   Clear
3:55 AM 75.0 °F - 64.9 °F 71% 29.98 in 10.0 mi SSW 9.2 mph - N/A   Clear
4:55 AM 75.0 °F - 64.9 °F 71% 29.99 in 10.0 mi SSW 8.1 mph - N/A   Scattered Clouds
5:44 AM 75.2 °F - 64.4 °F 69% 30.03 in 10.0 mi West 4.6 mph - N/A Thunderstorm Mostly Cloudy
5:55 AM 75.0 °F - 64.9 °F 71% 30.02 in 10.0 mi North 3.5 mph - N/A Thunderstorm Overcast
6:12 AM 73.4 °F - 66.2 °F 78% 30.03 in 10.0 mi ENE 4.6 mph - N/A   Overcast
6:55 AM 73.9 °F - 66.0 °F 76% 30.00 in 10.0 mi South 8.1 mph - N/A   Mostly Cloudy
7:55 AM 75.0 °F - 66.0 °F 73% 30.02 in 10.0 mi SSW 9.2 mph - N/A   Mostly Cloudy
8:55 AM 75.9 °F - 66.9 °F 74% 30.04 in 10.0 mi Calm Calm - N/A   Partly Cloudy
9:55 AM 79.0 °F - 69.1 °F 72% 30.04 in 10.0 mi South 4.6 mph - N/A   Mostly Cloudy
10:55 AM 80.1 °F 83.6 °F 71.1 °F 74% 30.05 in 10.0 mi SSW 6.9 mph - N/A   Mostly Cloudy
11:55 AM 78.1 °F - 71.1 °F 79% 30.06 in 9.0 mi SW 5.8 mph - N/A   Overcast
12:55 PM 81.0 °F 85.2 °F 72.0 °F 74% 30.04 in 10.0 mi SSW 6.9 mph - 0.00 in   Mostly Cloudy
1:55 PM 82.9 °F 87.5 °F 71.1 °F 67% 30.03 in 10.0 mi SW 10.4 mph 17.3 mph N/A   Partly Cloudy
2:55 PM 87.1 °F 92.8 °F 71.1 °F 59% 30.02 in 10.0 mi SW 13.8 mph 20.7 mph N/A   Partly Cloudy
3:55 PM 87.1 °F 93.6 °F 72.0 °F 61% 30.01 in 10.0 mi SSW 12.7 mph - N/A   Clear
4:55 PM 88.0 °F 93.8 °F 71.1 °F 57% 30.01 in 10.0 mi SSW 12.7 mph 18.4 mph N/A   Partly Cloudy
5:55 PM 88.0 °F 92.9 °F 70.0 °F 55% 30.01 in 10.0 mi SW 8.1 mph - N/A   Clear
6:55 PM 82.9 °F 87.0 °F 70.0 °F 65% 30.00 in 10.0 mi SSW 5.8 mph - N/A   Clear
7:55 PM 81.0 °F 84.9 °F 71.1 °F 72% 30.00 in 10.0 mi South 5.8 mph - N/A   Partly Cloudy
8:55 PM 81.0 °F 84.4 °F 70.0 °F 69% 29.99 in 10.0 mi SSW 5.8 mph - N/A   Clear
9:55 PM 80.1 °F 83.2 °F 70.0 °F 71% 30.00 in 10.0 mi SSW 4.6 mph - N/A   Clear
10:55 PM 80.1 °F 83.6 °F 71.1 °F 74% 30.01 in 10.0 mi SSW 6.9 mph - N/A   Clear
11:55 PM 80.1 °F 83.6 °F 71.1 °F 74% 30.00 in 10.0 mi SSW 6.9 mph - N/A   Partly Cloudy